Location: Boursonne
(49.2024°N, 3.0468°E)
Time: 03:00:37
(UTC+00:00)

CSL-04 DEB - Pass Details

Date: 03 March 2021
Orbit: 546 x 626 km, 98.8° (Epoch: 17 April)

Event Time Altitude Azimuth Distance (km) Brightness Sun altitude
Rises 18:12:15 0° 14° (NNE) 2,731 7.7 -7.0°
Reaches altitude 10° 18:14:22 10° 14° (NNE) 1,837 6.8 -7.3°
Maximum altitude 18:18:20 87° 285° (WNW) 564 4.4 -8.0°
Drops below altitude 10° 18:22:20 10° 198° (SSW) 1,853 7.2 -8.6°
Sets 18:24:29 0° 198° (SSW) 2,756 8.1 -9.0°
